This demonstration page uses our WeatherBlox Daily Observations layout. Learn more.

Left ArrowRight Arrow

39.01783, -85.05884

Hourly Observations for December 22, 2020

Temp ( °F °C ) Dew Point ( °F °C ) Humidity (%) Winds ( mph kmh ) Pressure ( in mb ) Visibility ( mi km ) Precip ( " mm )
12:52 am 00:52 Cloudy 42 5.6 26 -3.3 53 53 W 13 20 29.90 1013 10 16 N/A
1:52 am 01:52 Cloudy 42 5.6 27 -2.8 55 55 WNW 15 24 29.92 1013 10 16 N/A
2:52 am 02:52 Cloudy 42 5.6 27 -2.8 55 55 WNW 15 24 29.96 1015 10 16 N/A
3:52 am 03:52 Cloudy 40 4.4 24 -4.4 53 53 WNW 21 33 30.01 1016 10 16 N/A
4:52 am 04:52 Cloudy 39 3.9 26 -3.3 60 60 WNW 14 22 30.05 1018 10 16 N/A
5:52 am 05:52 Cloudy 38 3.3 26 -3.3 62 62 W 10 17 30.10 1019 10 16 N/A
6:52 am 06:52 Partly Cloudy 35 1.7 25 -3.9 67 67 WNW 12 19 30.13 1020 10 16 N/A
7:52 am 07:52 Partly Cloudy 33 0.6 26 -3.3 75 75 W 10 17 30.17 1022 10 16 N/A
8:52 am 08:52 Partly Cloudy 34 1.1 26 -3.3 73 73 W 12 19 30.20 1023 10 16 N/A
9:52 am 09:52 Cloudy 36 2.2 27 -2.8 70 70 W 8 13 30.24 1024 10 16 N/A
10:52 am 10:52 Cloudy 38 3.3 27 -2.8 65 65 W 7 11 30.27 1025 10 16 N/A
11:52 am 11:52 Mostly Cloudy 41 5 28 -2.2 60 60 WSW 7 11 30.27 1025 10 16 N/A
12:52 pm 12:52 Mostly Cloudy 42 5.6 28 -2.2 58 58 SSW 9 15 30.25 1025 10 16 N/A
1:52 pm 13:52 Mostly Cloudy 44 6.7 28 -2.2 53 53 N N/A 30.24 1024 10 16 N/A
2:52 pm 14:52 Mostly Sunny 44 6.7 27 -2.8 51 51 VRB 7 11 30.24 1024 10 16 N/A
3:52 pm 15:52 Mostly Sunny 44 6.7 27 -2.8 51 51 N N/A 30.24 1024 10 16 N/A
4:52 pm 16:52 Mostly Sunny 42 5.6 28 -2.2 58 58 S 6 9 30.24 1024 10 16 N/A
5:52 pm 17:52 Mostly Clear 38 3.3 27 -2.8 65 65 S 5 7 30.25 1024 10 16 N/A
6:52 pm 18:52 Clear 37 2.8 27 -2.8 67 67 S 6 9 30.24 1024 10 16 N/A
7:52 pm 19:52 Clear 37 2.8 27 -2.8 67 67 SSE 6 9 30.23 1024 10 16 N/A
8:52 pm 20:52 Clear 34 1.1 26 -3.3 73 73 SSE 7 11 30.23 1024 10 16 N/A
9:52 pm 21:52 Clear 33 0.6 26 -3.3 75 75 SSE 7 11 30.22 1023 10 16 N/A
10:52 pm 22:52 Clear 36 2.2 27 -2.8 70 70 S 5 7 30.22 1023 10 16 N/A
11:52 pm 23:52 Mostly Clear 34 1.1 26 -3.3 73 73 ESE 5 7 30.21 1023 10 16 N/A

Powered by AerisWeather